Flag for Germany Weather past 2 weeks in Ahrensburg, Schleswig-Holstein, Germany

Now
81 °F

Passing clouds.


Feels Like: 80 °F
Forecast: 58 / 64 °F
Wind: 12 mph from South

Location: Hamburg-Fuhlsbuettel

Current Time: Jul 7, 2015 at 2:08:03 PM

Latest Report: Jul 7, 2015 at 1:20 PM


Visibility: N/A

Pressure: 29.83 "Hg

Humidity: 34%

Dew point: 50 °F

Location of AhrensburgLocation

Historic Weather in Ahrensburg — Graph

°F

Ahrensburg temperature yesterday

Maximum temperature yesterday: 73 °F (at 2:20 PM)
Minimum temperature yesterday: 57 °F (at 11:20 PM)
Average temperature yesterday: 66 °F

Past Weeks' High & Low Weather Summary

 TemperatureHumidityPressure
High97 °F (Jul 4, 3:20 PM)100% (Jun 22, 9:20 PM)30.27 "Hg (Jun 22, 9:20 PM)
Low50 °F (Jun 22, 9:20 PM)23% (Jul 4, 3:50 PM)29.62 "Hg (Jun 23, 2:50 AM)
Average67 °F69%30.06 "Hg
* Reported Jun 22 12:20 PM — Jul 7 12:50 PM, Ahrensburg, Weather by CustomWeather, © 2015

Note: Actual official high and low records may vary slightly from our data, if they occured in-between our weather recording intervals... More about our weather records

Advertising

Ahrensburg weather history for previous 24 hours

 ConditionsComfort  
Time TempWeatherWind HumidityBarometerVisibility
12:50 PM
Tue, Jul 7
79 °FPassing clouds.9 mph34%29.83 "HgN/A
12:20 PM81 °FPassing clouds.8 mph32%29.83 "HgN/A
11:50 AM79 °FPassing clouds.9 mph34%29.86 "HgN/A
11:20 AM79 °FPassing clouds.10 mph34%29.86 "HgN/A
10:50 AM77 °FPassing clouds.10 mph42%29.89 "HgN/A
10:20 AM77 °FPassing clouds.9 mph44%29.89 "HgN/A
9:50 AM73 °FPassing clouds.9 mph53%29.92 "HgN/A
9:20 AM72 °FSunny.9 mph57%29.92 "Hg10 mi
8:50 AM70 °FPassing clouds.8 mph60%29.92 "HgN/A
8:20 AM66 °FPassing clouds.7 mph68%29.95 "HgN/A
7:50 AM64 °FPassing clouds.6 mph73%29.95 "HgN/A
7:20 AM63 °FPassing clouds.6 mph77%29.95 "HgN/A
6:50 AM61 °FPassing clouds.6 mph77%29.98 "HgN/A
6:20 AM59 °FPassing clouds.7 mph88%29.98 "HgN/A
5:50 AM57 °FClear.2 mph88%29.98 "Hg10 mi
5:20 AM57 °FFog.5 mph88%29.98 "HgN/A
4:50 AM55 °FPassing clouds.3 mph94%30.01 "HgN/A
4:20 AM54 °FClear.1 mph94%30.01 "Hg10 mi
3:50 AM54 °FClear.1 mph94%30.01 "Hg10 mi
3:20 AM54 °FFog.1 mph94%30.01 "HgN/A
2:50 AM54 °FClear.No wind94%30.04 "Hg10 mi
2:20 AM55 °FClear.No wind88%30.04 "Hg10 mi
1:50 AM55 °FClear.2 mph94%30.04 "Hg10 mi
1:20 AM55 °FClear.No wind88%30.04 "Hg10 mi
12:50 AM57 °FClear.No wind82%30.04 "Hg10 mi
12:20 AM57 °FClear.1 mph82%30.07 "Hg10 mi
11:50 PM
Mon, Jul 6
57 °FClear.No wind82%30.07 "Hg10 mi
11:20 PM57 °FClear.No wind82%30.07 "Hg10 mi
10:50 PM61 °FClear.3 mph72%30.07 "Hg10 mi
10:20 PM61 °FSunny.7 mph72%30.07 "Hg10 mi
9:50 PM63 °FSunny.7 mph68%30.07 "Hg10 mi
9:20 PM63 °FSunny.9 mph73%30.07 "Hg10 mi
8:50 PM64 °FSunny.10 mph68%30.07 "Hg10 mi
8:20 PM66 °FSunny.9 mph64%30.07 "Hg10 mi
7:50 PM68 °FPassing clouds.12 mph60%30.07 "HgN/A
7:20 PM70 °FPassing clouds.12 mph60%30.07 "HgN/A
6:50 PM70 °FPassing clouds.12 mph60%30.07 "HgN/A
6:20 PM70 °FPassing clouds.13 mph60%30.09 "HgN/A
5:50 PM72 °FScattered clouds.14 mph57%30.09 "HgN/A
5:20 PM72 °FScattered clouds.14 mph57%30.09 "HgN/A
4:50 PM70 °FScattered clouds.15 mph57%30.09 "HgN/A
4:20 PM72 °FScattered clouds.13 mph57%30.09 "HgN/A
3:50 PM72 °FScattered clouds.14 mph47%30.09 "HgN/A
3:20 PM72 °FScattered clouds.14 mph47%30.09 "HgN/A
2:50 PM70 °FScattered clouds.17 mph50%30.09 "HgN/A
2:20 PM73 °FScattered clouds.17 mph44%30.09 "HgN/A
Weather by CustomWeather, © 2015

See weather overviewHow to use our weather pages